This demonstration page uses our WeatherBlox Daily Observations layout. Learn more.

Left ArrowRight Arrow

53.62937, 11.41316

Hourly Observations for April 6, 2021

Temp ( °F °C ) Dew Point ( °F °C ) Humidity (%) Winds ( mph kmh ) Pressure ( in mb ) Visibility ( mi km ) Precip ( " mm )
5:50 am 05:50 Partly Cloudy 32 0 30 -1 93 93 SW 9 15 29.62 1003 30 48 N/A
6:20 am 06:20 Mostly Clear 32 0 28 -2 87 87 SW 7 11 29.62 1003 30 48 N/A
6:50 am 06:50 Mostly Sunny 32 0 28 -2 87 87 SW 8 13 29.62 1003 30 48 N/A
7:20 am 07:20 Mostly Sunny 32 0 30 -1 93 93 SW 10 17 29.62 1003 30 48 N/A
7:50 am 07:50 Mostly Sunny 34 1 28 -2 81 81 SW 10 17 29.62 1003 30 48 N/A
8:20 am 08:20 Mostly Sunny 36 2 28 -2 75 75 SW 13 20 29.62 1003 7 11 N/A
8:50 am 08:50 Mostly Sunny 36 2 28 -2 75 75 SW 12 19 29.62 1003 7 11 N/A
9:20 am 09:20 Mostly Sunny 37 3 28 -2 70 70 WSW 10 17 29.62 1003 30 48 N/A
9:50 am 09:50 Partly Cloudy 39 4 28 -2 65 65 WSW 9 15 29.62 1003 30 48 N/A
10:20 am 10:20 Partly Cloudy 39 4 28 -2 65 65 WSW 12 19 29.62 1003 30 48 N/A
10:50 am 10:50 Mostly Cloudy 39 4 28 -2 65 65 WSW 16 26 29.62 1003 30 48 N/A
11:20 am 11:20 Partly Cloudy 37 3 32 0 81 81 SW 20 31 29.62 1003 30 48 N/A
11:50 am 11:50 Mostly Cloudy with Light Showers 37 3 30 -1 75 75 SW 16 26 29.62 1003 30 48 N/A
12:20 pm 12:20 Mostly Cloudy with Showers Nearby 41 5 32 0 70 70 WSW 10 17 29.62 1003 30 48 N/A
12:50 pm 12:50 Mostly Cloudy with Showers Nearby 36 2 30 -1 81 81 WSW 7 11 29.62 1003 30 48 N/A
1:20 pm 13:20 Partly Cloudy with Showers Nearby 36 2 32 0 87 87 SW 12 19 29.62 1003 30 48 N/A
1:50 pm 13:50 Partly Cloudy with Showers Nearby 36 2 32 0 87 87 WSW 12 19 29.62 1003 3 5 N/A
2:20 pm 14:20 Partly Cloudy with Showers Nearby 37 3 32 0 81 81 SSW 12 19 29.62 1003 3 5 N/A
2:50 pm 14:50 Partly Cloudy with Showers Nearby 39 4 32 0 75 75 SW 12 19 29.62 1003 30 48 N/A
3:20 pm 15:20 Partly Cloudy with Showers Nearby 41 5 30 -1 66 66 SW 13 20 29.59 1002 30 48 N/A
3:50 pm 15:50 Partly Cloudy 43 6 30 -1 61 61 WSW 14 22 29.59 1002 30 48 N/A
4:20 pm 16:20 Partly Cloudy 41 5 28 -2 61 61 SW 17 28 29.59 1002 30 48 N/A
4:50 pm 16:50 Partly Cloudy with Showers Nearby 39 4 32 0 75 75 WSW 12 19 29.59 1002 30 48 N/A
5:20 pm 17:20 Partly Cloudy with Showers Nearby 39 4 30 -1 70 70 SW 10 17 29.59 1002 30 48 N/A
5:50 pm 17:50 Partly Cloudy with Showers Nearby 37 3 30 -1 75 75 WSW 9 15 29.59 1002 30 48 N/A
6:20 pm 18:20 Partly Cloudy with Light Snow Showers 39 4 30 -1 70 70 SW 13 20 29.59 1002 3 5 N/A
6:50 pm 18:50 Partly Cloudy with Light Snow Showers 34 1 30 -1 87 87 VRB 6 9 29.59 1002 30 48 N/A
7:20 pm 19:20 Partly Cloudy with Showers Nearby 36 2 30 -1 81 81 SW 5 7 29.59 1002 30 48 N/A
7:50 pm 19:50 Mostly Sunny 34 1 32 0 93 93 SSW 7 11 29.59 1002 7 11 N/A
8:20 pm 20:20 Mostly Clear 34 1 30 -1 87 87 SSW 8 13 29.62 1003 30 48 N/A
8:50 pm 20:50 Mostly Clear 34 1 30 -1 87 87 SW 8 13 29.62 1003 30 48 N/A
9:20 pm 21:20 Mostly Clear 32 0 30 -1 93 93 SW 7 11 29.62 1003 7 11 N/A

Powered by AerisWeather